QPF
0.01 0.02 0.04 0.04 0.03 0.02 0.01 0.00 0.00 0.00 0.00 0.00 0.00 0.00 0.00 0.00 0.00 0.01 0.00 0.00 0.00 0.00 0.00 0.00 0.00 0.00 0.01 0.02 0.02 0.03 0.03 0.02 0.02 0.02 0.02 0.01 0.01 0.02 0.02 0.03 0.02 0.02 0.02 0.01 0.02 0.02 0.02 0.01 0.01
0.02 0.03 0.04 0.03 0.02 0.01 0.00 0.00 0.00 0.00 0.00 0.00 0.00 0.00 0.00 0.00 0.00 0.00 0.00 0.00 0.00 0.00 0.00 0.00 0.00 0.00 0.01 0.02 0.03 0.03 0.03 0.02 0.03 0.02 0.02 0.01 0.01 0.01 0.02 0.02 0.03 0.03 0.02 0.02 0.02 0.02 0.02 0.01 0.01
0.03 0.03 0.04 0.03 0.02 0.01 0.00 0.00 0.00 0.00 0.00 0.00 0.00 0.00 0.00 0.00 0.00 0.00 0.00 0.00 0.00 0.00 0.00 0.00 0.00 0.00 0.01 0.01 0.02 0.03 0.04 0.04 0.04 0.03 0.02 0.02 0.01 0.01 0.02 0.02 0.02 0.03 0.03 0.02 0.01 0.01 0.01 0.01 0.01
0.04 0.04 0.05 0.03 0.01 0.00 0.00 0.00 0.00 0.01 0.00 0.00 0.00 0.00 0.00 0.00 0.00 0.00 0.00 0.00 0.00 0.00 0.01 0.01 0.00 0.01 0.01 0.01 0.02 0.03 0.04 0.05 0.05 0.04 0.04 0.02 0.02 0.02 0.02 0.01 0.02 0.03 0.03 0.03 0.02 0.01 0.01 0.01 0.01
0.07 0.06 0.05 0.03 0.01 0.00 0.00 0.01 0.00 0.00 0.00 0.00 0.00 0.00 0.00 0.00 0.00 0.00 0.00 0.00 0.01 0.01 0.02 0.02 0.02 0.02 0.02 0.02 0.03 0.03 0.04 0.04 0.04 0.05 0.05 0.04 0.04 0.03 0.03 0.02 0.02 0.03 0.04 0.05 0.04 0.03 0.02 0.01 0.00
0.09 0.07 0.05 0.02 0.01 0.00 0.00 0.00 0.00 0.00 0.00 0.00 0.00 0.00 0.00 0.00 0.00 0.00 0.00 0.01 0.01 0.03 0.05 0.06 0.06 0.04 0.03 0.04 0.04 0.04 0.05 0.05 0.05 0.05 0.04 0.05 0.05 0.05 0.05 0.04 0.03 0.04 0.07 0.07 0.07 0.06 0.02 0.01 0.01
0.10 0.06 0.03 0.02 0.01 0.01 0.01 0.00 0.01 0.01 0.01 0.00 0.00 0.00 0.00 0.00 0.00 0.01 0.01 0.01 0.04 0.05 0.06 0.07 0.09 0.08 0.06 0.05 0.06 0.04 0.04 0.05 0.05 0.05 0.04 0.04 0.04 0.05 0.05 0.04 0.03 0.03 0.06 0.12 0.11 0.09 0.05 0.02 0.01
0.11 0.07 0.03 0.02 0.01 0.02 0.02 0.01 0.01 0.01 0.00 0.00 0.00 0.00 0.00 0.00 0.00 0.00 0.01 0.03 0.05 0.05 0.06 0.08 0.10 0.11 0.09 0.07 0.07 0.05 0.04 0.04 0.05 0.05 0.04 0.04 0.03 0.04 0.04 0.04 0.04 0.04 0.05 0.10 0.17 0.14 0.10 0.04 0.01
0.11 0.09 0.04 0.02 0.01 0.02 0.03 0.03 0.01 0.00 0.00 0.00 0.01 0.00 0.01 0.00 0.00 0.01 0.02 0.04 0.05 0.06 0.07 0.10 0.11 0.13 0.13 0.09 0.07 0.05 0.06 0.06 0.06 0.05 0.05 0.04 0.03 0.04 0.05 0.04 0.03 0.03 0.04 0.06 0.15 0.22 0.15 0.08 0.04
0.11 0.09 0.04 0.02 0.01 0.01 0.01 0.03 0.01 0.00 0.01 0.01 0.01 0.01 0.01 0.01 0.01 0.02 0.03 0.03 0.04 0.05 0.07 0.10 0.12 0.16 0.17 0.13 0.09 0.06 0.05 0.06 0.06 0.05 0.06 0.07 0.04 0.04 0.05 0.04 0.03 0.02 0.02 0.04 0.08 0.19 0.19 0.11 0.08
0.10 0.07 0.03 0.02 0.01 0.01 0.01 0.02 0.02 0.01 0.00 0.00 0.00 0.00 0.00 0.01 0.02 0.03 0.04 0.04 0.03 0.05 0.07 0.09 0.12 0.16 0.21 0.18 0.11 0.07 0.05 0.05 0.06 0.05 0.05 0.05 0.05 0.05 0.05 0.05 0.04 0.03 0.03 0.03 0.04 0.08 0.16 0.15 0.10
0.08 0.05 0.03 0.03 0.02 0.02 0.01 0.01 0.02 0.01 0.00 0.00 0.00 0.00 0.00 0.01 0.02 0.03 0.04 0.05 0.04 0.04 0.06 0.08 0.12 0.14 0.21 0.20 0.13 0.08 0.06 0.04 0.05 0.05 0.05 0.05 0.05 0.05 0.04 0.05 0.04 0.03 0.03 0.03 0.03 0.04 0.08 0.12 0.11
0.05 0.05 0.03 0.03 0.03 0.03 0.02 0.02 0.01 0.01 0.00 0.00 0.00 0.01 0.01 0.01 0.02 0.03 0.04 0.04 0.05 0.04 0.06 0.09 0.11 0.12 0.19 0.22 0.13 0.08 0.06 0.04 0.04 0.06 0.06 0.05 0.05 0.04 0.04 0.05 0.06 0.04 0.04 0.03 0.02 0.03 0.04 0.07 0.10
0.03 0.04 0.03 0.02 0.02 0.02 0.02 0.03 0.02 0.01 0.01 0.01 0.01 0.00 0.01 0.01 0.02 0.02 0.03 0.05 0.05 0.05 0.06 0.09 0.10 0.11 0.16 0.20 0.15 0.09 0.07 0.05 0.05 0.06 0.07 0.06 0.06 0.05 0.06 0.05 0.06 0.06 0.04 0.04 0.02 0.02 0.03 0.04 0.07
0.02 0.04 0.04 0.02 0.02 0.02 0.02 0.03 0.03 0.01 0.02 0.03 0.01 0.00 0.01 0.01 0.01 0.02 0.03 0.05 0.06 0.07 0.07 0.08 0.10 0.10 0.14 0.16 0.13 0.11 0.08 0.07 0.05 0.04 0.04 0.06 0.06 0.07 0.08 0.07 0.06 0.07 0.06 0.05 0.03 0.03 0.04 0.04 0.07
0.03 0.05 0.05 0.03 0.02 0.03 0.03 0.03 0.02 0.01 0.03 0.04 0.02 0.01 0.01 0.01 0.01 0.02 0.02 0.05 0.08 0.09 0.08 0.08 0.10 0.11 0.12 0.15 0.12 0.08 0.07 0.06 0.05 0.04 0.03 0.03 0.06 0.08 0.10 0.09 0.07 0.06 0.07 0.06 0.04 0.03 0.03 0.04 0.05
0.05 0.05 0.04 0.03 0.02 0.03 0.04 0.02 0.01 0.01 0.04 0.05 0.02 0.02 0.01 0.01 0.01 0.02 0.03 0.04 0.08 0.10 0.09 0.09 0.09 0.09 0.11 0.14 0.15 0.09 0.05 0.05 0.04 0.04 0.03 0.02 0.04 0.07 0.11 0.10 0.08 0.07 0.08 0.07 0.05 0.03 0.02 0.03 0.03
0.04 0.03 0.03 0.03 0.02 0.02 0.03 0.02 0.01 0.01 0.04 0.06 0.03 0.02 0.01 0.01 0.02 0.02 0.03 0.04 0.07 0.10 0.10 0.09 0.10 0.11 0.11 0.13 0.15 0.12 0.06 0.04 0.03 0.03 0.04 0.03 0.03 0.05 0.09 0.11 0.10 0.09 0.10 0.10 0.08 0.05 0.04 0.03 0.03
0.03 0.03 0.03 0.03 0.02 0.02 0.02 0.02 0.01 0.02 0.04 0.08 0.04 0.02 0.02 0.01 0.02 0.02 0.03 0.04 0.07 0.09 0.10 0.08 0.09 0.13 0.11 0.11 0.13 0.11 0.06 0.04 0.03 0.03 0.03 0.04 0.04 0.04 0.05 0.07 0.12 0.12 0.11 0.10 0.10 0.08 0.05 0.03 0.02
0.03 0.04 0.04 0.03 0.02 0.02 0.03 0.03 0.02 0.02 0.04 0.08 0.05 0.03 0.03 0.03 0.04 0.04 0.04 0.05 0.06 0.08 0.09 0.08 0.07 0.11 0.12 0.11 0.11 0.10 0.07 0.05 0.03 0.02 0.02 0.03 0.04 0.05 0.06 0.06 0.10 0.13 0.14 0.13 0.10 0.08 0.05 0.02 0.02
0.02 0.03 0.04 0.04 0.03 0.03 0.03 0.04 0.03 0.02 0.03 0.07 0.06 0.04 0.03 0.04 0.04 0.05 0.05 0.05 0.06 0.07 0.09 0.08 0.07 0.10 0.12 0.11 0.09 0.09 0.07 0.05 0.03 0.02 0.02 0.02 0.03 0.04 0.06 0.07 0.08 0.10 0.13 0.15 0.13 0.08 0.04 0.03 0.02
0.02 0.03 0.03 0.04 0.07 0.06 0.05 0.06 0.03 0.02 0.02 0.06 0.07 0.05 0.04 0.04 0.04 0.05 0.05 0.07 0.06 0.07 0.08 0.08 0.08 0.09 0.11 0.11 0.09 0.08 0.07 0.05 0.03 0.02 0.02 0.02 0.02 0.03 0.03 0.05 0.06 0.06 0.09 0.12 0.14 0.12 0.08 0.05 0.04
0.02 0.02 0.03 0.04 0.07 0.06 0.06 0.07 0.04 0.02 0.04 0.06 0.07 0.05 0.04 0.03 0.04 0.05 0.05 0.06 0.06 0.07 0.07 0.07 0.08 0.11 0.11 0.10 0.09 0.07 0.07 0.06 0.05 0.04 0.03 0.02 0.02 0.02 0.02 0.03 0.04 0.04 0.05 0.06 0.09 0.12 0.13 0.09 0.06
0.02 0.03 0.04 0.06 0.07 0.07 0.03 0.04 0.04 0.04 0.06 0.07 0.07 0.06 0.04 0.04 0.04 0.04 0.05 0.05 0.05 0.07 0.07 0.07 0.08 0.11 0.12 0.12 0.10 0.09 0.08 0.07 0.06 0.05 0.04 0.02 0.02 0.02 0.02 0.02 0.03 0.03 0.03 0.05 0.06 0.07 0.12 0.12 0.08
0.03 0.06 0.08 0.09 0.08 0.05 0.02 0.02 0.04 0.04 0.06 0.08 0.09 0.09 0.06 0.05 0.06 0.05 0.05 0.05 0.05 0.06 0.07 0.07 0.08 0.10 0.11 0.11 0.10 0.08 0.08 0.08 0.07 0.06 0.05 0.04 0.02 0.02 0.03 0.03 0.03 0.03 0.03 0.03 0.04 0.05 0.07 0.09 0.08
0.03 0.05 0.08 0.10 0.07 0.03 0.02 0.03 0.04 0.04 0.05 0.05 0.07 0.11 0.08 0.06 0.06 0.05 0.05 0.05 0.05 0.06 0.08 0.06 0.07 0.08 0.09 0.11 0.11 0.08 0.07 0.07 0.07 0.06 0.05 0.05 0.05 0.03 0.02 0.03 0.03 0.03 0.02 0.02 0.03 0.04 0.06 0.07 0.06
0.03 0.03 0.04 0.06 0.04 0.03 0.03 0.03 0.03 0.02 0.03 0.03 0.04 0.09 0.10 0.07 0.05 0.04 0.05 0.05 0.05 0.06 0.08 0.08 0.07 0.08 0.08 0.09 0.09 0.08 0.07 0.07 0.06 0.06 0.04 0.04 0.05 0.05 0.03 0.03 0.03 0.03 0.02 0.02 0.02 0.03 0.05 0.06 0.06
0.02 0.03 0.04 0.06 0.05 0.04 0.04 0.03 0.03 0.03 0.04 0.04 0.04 0.07 0.12 0.08 0.06 0.05 0.05 0.04 0.04 0.05 0.06 0.07 0.08 0.08 0.08 0.08 0.08 0.07 0.06 0.06 0.06 0.05 0.05 0.04 0.05 0.05 0.05 0.04 0.03 0.02 0.02 0.02 0.03 0.03 0.04 0.04 0.05
0.02 0.02 0.04 0.06 0.04 0.05 0.05 0.05 0.04 0.04 0.05 0.05 0.04 0.06 0.09 0.08 0.06 0.06 0.05 0.04 0.03 0.04 0.06 0.06 0.06 0.07 0.07 0.07 0.08 0.07 0.06 0.04 0.04 0.04 0.03 0.03 0.04 0.04 0.04 0.04 0.04 0.03 0.03 0.02 0.03 0.03 0.03 0.04 0.04
0.02 0.02 0.04 0.05 0.04 0.05 0.04 0.05 0.04 0.04 0.04 0.04 0.05 0.05 0.05 0.06 0.06 0.07 0.06 0.04 0.03 0.04 0.06 0.06 0.06 0.06 0.06 0.05 0.05 0.06 0.05 0.04 0.03 0.03 0.03 0.03 0.03 0.04 0.03 0.03 0.02 0.03 0.03 0.03 0.03 0.03 0.03 0.03 0.04
MSLP
1013.91 1014.03 1014.30 1014.67 1015.06 1015.43 1015.69 1015.82 1015.82 1015.72 1015.58 1015.48 1015.47 1015.61 1015.90 1016.31 1016.78 1017.26 1017.69 1018.04 1018.30 1018.48 1018.64 1018.80 1018.99 1019.21 1019.44 1019.64 1019.78 1019.84 1019.80 1019.68 1019.53 1019.38 1019.28 1019.24 1019.27 1019.33 1019.40 1019.43 1019.41 1019.31 1019.16 1019.00 1018.84 1018.73 1018.67 1018.67 1018.68
1014.26 1014.44 1014.72 1015.06 1015.39 1015.66 1015.82 1015.86 1015.80 1015.67 1015.54 1015.48 1015.54 1015.72 1016.04 1016.46 1016.91 1017.34 1017.71 1018.01 1018.23 1018.40 1018.56 1018.75 1018.97 1019.22 1019.48 1019.70 1019.86 1019.92 1019.90 1019.81 1019.69 1019.58 1019.52 1019.52 1019.57 1019.65 1019.71 1019.73 1019.69 1019.58 1019.42 1019.24 1019.09 1018.98 1018.92 1018.90 1018.89
1014.67 1014.88 1015.15 1015.42 1015.65 1015.79 1015.83 1015.76 1015.63 1015.48 1015.37 1015.35 1015.47 1015.72 1016.09 1016.52 1016.96 1017.36 1017.69 1017.95 1018.15 1018.31 1018.49 1018.70 1018.96 1019.25 1019.53 1019.78 1019.95 1020.03 1020.03 1019.96 1019.87 1019.79 1019.75 1019.77 1019.83 1019.89 1019.94 1019.94 1019.87 1019.75 1019.60 1019.44 1019.31 1019.22 1019.18 1019.16 1019.15
1015.12 1015.34 1015.57 1015.76 1015.87 1015.87 1015.77 1015.59 1015.39 1015.21 1015.12 1015.15 1015.34 1015.65 1016.05 1016.50 1016.93 1017.31 1017.62 1017.85 1018.04 1018.22 1018.42 1018.67 1018.96 1019.29 1019.60 1019.87 1020.06 1020.15 1020.17 1020.12 1020.05 1019.99 1019.97 1019.99 1020.03 1020.07 1020.09 1020.06 1019.98 1019.87 1019.73 1019.61 1019.53 1019.48 1019.47 1019.48 1019.48
1015.59 1015.81 1015.99 1016.08 1016.06 1015.93 1015.71 1015.43 1015.16 1014.96 1014.89 1014.97 1015.20 1015.55 1015.99 1016.45 1016.87 1017.23 1017.51 1017.73 1017.91 1018.11 1018.34 1018.62 1018.96 1019.32 1019.66 1019.95 1020.15 1020.27 1020.30 1020.27 1020.22 1020.17 1020.15 1020.16 1020.18 1020.20 1020.19 1020.14 1020.06 1019.96 1019.86 1019.79 1019.75 1019.76 1019.80 1019.84 1019.84
1016.05 1016.26 1016.38 1016.39 1016.26 1016.02 1015.69 1015.34 1015.02 1014.81 1014.75 1014.86 1015.13 1015.51 1015.95 1016.41 1016.81 1017.14 1017.40 1017.60 1017.79 1018.00 1018.25 1018.57 1018.94 1019.33 1019.69 1019.99 1020.21 1020.34 1020.39 1020.38 1020.34 1020.31 1020.30 1020.30 1020.31 1020.31 1020.28 1020.22 1020.14 1020.06 1020.00 1019.97 1019.99 1020.05 1020.12 1020.17 1020.18
1016.47 1016.65 1016.73 1016.67 1016.47 1016.14 1015.75 1015.35 1015.02 1014.81 1014.76 1014.89 1015.17 1015.55 1015.98 1016.41 1016.78 1017.07 1017.29 1017.48 1017.66 1017.88 1018.16 1018.50 1018.89 1019.29 1019.66 1019.97 1020.20 1020.34 1020.40 1020.41 1020.41 1020.40 1020.40 1020.42 1020.42 1020.42 1020.38 1020.32 1020.25 1020.19 1020.15 1020.16 1020.21 1020.29 1020.38 1020.43 1020.43
1016.82 1016.97 1017.01 1016.90 1016.65 1016.29 1015.87 1015.46 1015.13 1014.93 1014.90 1015.03 1015.31 1015.67 1016.07 1016.44 1016.76 1017.01 1017.20 1017.36 1017.54 1017.76 1018.04 1018.39 1018.78 1019.19 1019.56 1019.87 1020.09 1020.24 1020.32 1020.37 1020.39 1020.42 1020.46 1020.49 1020.52 1020.53 1020.50 1020.45 1020.38 1020.33 1020.31 1020.33 1020.38 1020.46 1020.53 1020.57 1020.54
1017.05 1017.19 1017.19 1017.06 1016.80 1016.43 1016.01 1015.62 1015.30 1015.12 1015.10 1015.23 1015.48 1015.80 1016.15 1016.47 1016.73 1016.93 1017.08 1017.22 1017.39 1017.60 1017.88 1018.23 1018.62 1019.01 1019.37 1019.67 1019.89 1020.05 1020.15 1020.23 1020.29 1020.37 1020.44 1020.52 1020.59 1020.62 1020.61 1020.57 1020.51 1020.46 1020.43 1020.44 1020.47 1020.53 1020.56 1020.57 1020.51
1017.18 1017.28 1017.27 1017.12 1016.86 1016.51 1016.12 1015.76 1015.47 1015.30 1015.27 1015.38 1015.59 1015.87 1016.15 1016.41 1016.61 1016.77 1016.89 1017.01 1017.17 1017.38 1017.66 1018.00 1018.38 1018.75 1019.10 1019.39 1019.61 1019.77 1019.90 1020.00 1020.11 1020.23 1020.36 1020.49 1020.59 1020.66 1020.68 1020.66 1020.60 1020.55 1020.50 1020.48 1020.47 1020.48 1020.48 1020.44 1020.35
1017.21 1017.28 1017.24 1017.09 1016.84 1016.51 1016.15 1015.81 1015.54 1015.38 1015.33 1015.40 1015.55 1015.76 1015.98 1016.18 1016.34 1016.46 1016.57 1016.68 1016.84 1017.06 1017.35 1017.69 1018.06 1018.43 1018.76 1019.05 1019.27 1019.44 1019.59 1019.72 1019.87 1020.03 1020.21 1020.38 1020.52 1020.63 1020.67 1020.67 1020.62 1020.56 1020.49 1020.43 1020.39 1020.35 1020.31 1020.24 1020.13
1017.18 1017.21 1017.14 1016.99 1016.74 1016.43 1016.09 1015.76 1015.49 1015.30 1015.21 1015.22 1015.30 1015.43 1015.59 1015.73 1015.86 1015.96 1016.07 1016.20 1016.38 1016.62 1016.93 1017.28 1017.67 1018.05 1018.39 1018.68 1018.91 1019.10 1019.26 1019.42 1019.59 1019.78 1019.99 1020.19 1020.37 1020.50 1020.57 1020.59 1020.55 1020.48 1020.40 1020.31 1020.24 1020.17 1020.10 1020.02 1019.91
1017.14 1017.12 1017.03 1016.86 1016.61 1016.30 1015.96 1015.61 1015.30 1015.05 1014.89 1014.82 1014.82 1014.88 1014.96 1015.06 1015.17 1015.27 1015.39 1015.56 1015.77 1016.05 1016.40 1016.79 1017.21 1017.62 1017.99 1018.31 1018.57 1018.78 1018.96 1019.13 1019.31 1019.51 1019.72 1019.93 1020.13 1020.28 1020.38 1020.41 1020.39 1020.33 1020.25 1020.16 1020.07 1019.99 1019.91 1019.83 1019.74
1017.15 1017.10 1016.98 1016.78 1016.51 1016.18 1015.80 1015.40 1015.02 1014.69 1014.43 1014.26 1014.16 1014.13 1014.16 1014.23 1014.31 1014.43 1014.59 1014.79 1015.05 1015.38 1015.78 1016.23 1016.70 1017.16 1017.59 1017.95 1018.26 1018.50 1018.70 1018.87 1019.05 1019.23 1019.43 1019.64 1019.83 1019.99 1020.11 1020.17 1020.17 1020.14 1020.07 1019.99 1019.91 1019.84 1019.77 1019.71 1019.64
1017.25 1017.17 1017.02 1016.80 1016.50 1016.12 1015.68 1015.20 1014.72 1014.28 1013.90 1013.61 1013.41 1013.31 1013.28 1013.32 1013.41 1013.55 1013.73 1013.97 1014.28 1014.66 1015.11 1015.62 1016.15 1016.69 1017.18 1017.62 1017.97 1018.26 1018.48 1018.66 1018.82 1018.97 1019.15 1019.33 1019.51 1019.67 1019.80 1019.89 1019.93 1019.93 1019.90 1019.85 1019.79 1019.73 1019.68 1019.64 1019.61
1017.46 1017.35 1017.19 1016.94 1016.59 1016.16 1015.64 1015.06 1014.47 1013.89 1013.39 1012.98 1012.69 1012.52 1012.45 1012.47 1012.57 1012.72 1012.93 1013.21 1013.55 1013.96 1014.45 1015.01 1015.60 1016.20 1016.77 1017.28 1017.70 1018.03 1018.28 1018.46 1018.60 1018.73 1018.87 1019.02 1019.18 1019.34 1019.49 1019.62 1019.70 1019.75 1019.76 1019.74 1019.71 1019.67 1019.64 1019.61 1019.59
1017.76 1017.65 1017.47 1017.19 1016.81 1016.31 1015.70 1015.01 1014.28 1013.58 1012.96 1012.45 1012.08 1011.85 1011.76 1011.79 1011.90 1012.07 1012.30 1012.59 1012.94 1013.36 1013.86 1014.43 1015.06 1015.71 1016.34 1016.92 1017.41 1017.79 1018.07 1018.26 1018.39 1018.49 1018.59 1018.71 1018.86 1019.03 1019.20 1019.36 1019.50 1019.60 1019.65 1019.67 1019.67 1019.64 1019.62 1019.59 1019.58
1018.10 1018.00 1017.82 1017.53 1017.10 1016.53 1015.83 1015.03 1014.19 1013.37 1012.63 1012.04 1011.62 1011.37 1011.29 1011.34 1011.47 1011.67 1011.91 1012.19 1012.52 1012.91 1013.38 1013.93 1014.56 1015.23 1015.90 1016.52 1017.06 1017.49 1017.80 1018.00 1018.12 1018.21 1018.29 1018.39 1018.53 1018.71 1018.92 1019.13 1019.32 1019.47 1019.57 1019.62 1019.63 1019.61 1019.58 1019.55 1019.52
1018.44 1018.36 1018.19 1017.88 1017.43 1016.80 1016.01 1015.10 1014.15 1013.22 1012.41 1011.76 1011.32 1011.09 1011.04 1011.14 1011.33 1011.56 1011.80 1012.06 1012.34 1012.66 1013.06 1013.55 1014.12 1014.76 1015.43 1016.07 1016.64 1017.10 1017.44 1017.66 1017.79 1017.87 1017.94 1018.04 1018.19 1018.39 1018.63 1018.89 1019.14 1019.34 1019.48 1019.56 1019.58 1019.56 1019.52 1019.47 1019.42
1018.73 1018.67 1018.52 1018.22 1017.74 1017.05 1016.18 1015.18 1014.13 1013.12 1012.24 1011.57 1011.15 1010.96 1010.99 1011.16 1011.42 1011.70 1011.95 1012.18 1012.40 1012.63 1012.92 1013.30 1013.78 1014.35 1014.97 1015.59 1016.16 1016.64 1016.99 1017.23 1017.36 1017.45 1017.52 1017.63 1017.80 1018.03 1018.32 1018.63 1018.92 1019.17 1019.35 1019.45 1019.48 1019.46 1019.40 1019.34 1019.28
1018.96 1018.94 1018.81 1018.51 1018.01 1017.27 1016.33 1015.24 1014.10 1013.02 1012.11 1011.44 1011.05 1010.94 1011.07 1011.34 1011.70 1012.04 1012.32 1012.53 1012.67 1012.80 1012.96 1013.21 1013.56 1014.01 1014.55 1015.11 1015.65 1016.11 1016.47 1016.71 1016.86 1016.95 1017.03 1017.16 1017.35 1017.61 1017.93 1018.29 1018.63 1018.92 1019.14 1019.26 1019.31 1019.29 1019.23 1019.16 1019.11
1019.13 1019.15 1019.05 1018.77 1018.25 1017.47 1016.46 1015.29 1014.07 1012.93 1011.99 1011.32 1010.99 1010.96 1011.20 1011.60 1012.07 1012.49 1012.82 1013.02 1013.11 1013.15 1013.18 1013.27 1013.47 1013.79 1014.21 1014.68 1015.16 1015.58 1015.92 1016.15 1016.30 1016.39 1016.49 1016.62 1016.83 1017.11 1017.47 1017.86 1018.24 1018.57 1018.81 1018.97 1019.03 1019.03 1018.99 1018.94 1018.91
1019.29 1019.36 1019.30 1019.03 1018.49 1017.67 1016.60 1015.35 1014.06 1012.86 1011.88 1011.22 1010.93 1010.99 1011.34 1011.87 1012.45 1012.98 1013.36 1013.59 1013.65 1013.60 1013.52 1013.47 1013.52 1013.69 1013.98 1014.34 1014.73 1015.09 1015.39 1015.60 1015.73 1015.82 1015.91 1016.05 1016.26 1016.55 1016.92 1017.33 1017.73 1018.09 1018.37 1018.55 1018.65 1018.68 1018.67 1018.66 1018.68
1019.49 1019.61 1019.59 1019.33 1018.79 1017.93 1016.79 1015.47 1014.10 1012.83 1011.82 1011.15 1010.89 1011.02 1011.46 1012.10 1012.79 1013.42 1013.88 1014.14 1014.20 1014.11 1013.94 1013.78 1013.69 1013.73 1013.88 1014.12 1014.41 1014.69 1014.93 1015.10 1015.20 1015.27 1015.34 1015.46 1015.66 1015.94 1016.31 1016.72 1017.13 1017.51 1017.81 1018.03 1018.16 1018.23 1018.27 1018.32 1018.39
1019.75 1019.92 1019.93 1019.70 1019.14 1018.25 1017.06 1015.67 1014.23 1012.90 1011.83 1011.15 1010.89 1011.05 1011.56 1012.28 1013.07 1013.79 1014.33 1014.64 1014.72 1014.61 1014.39 1014.15 1013.95 1013.87 1013.89 1014.02 1014.20 1014.40 1014.56 1014.67 1014.73 1014.76 1014.80 1014.89 1015.06 1015.32 1015.66 1016.06 1016.47 1016.85 1017.17 1017.42 1017.59 1017.71 1017.80 1017.90 1018.03
1020.06 1020.28 1020.32 1020.10 1019.53 1018.62 1017.38 1015.94 1014.44 1013.05 1011.94 1011.22 1010.95 1011.12 1011.66 1012.43 1013.28 1014.07 1014.69 1015.06 1015.17 1015.07 1014.83 1014.53 1014.26 1014.08 1014.00 1014.01 1014.10 1014.20 1014.29 1014.33 1014.34 1014.32 1014.31 1014.36 1014.49 1014.70 1015.01 1015.38 1015.78 1016.16 1016.49 1016.76 1016.97 1017.13 1017.27 1017.41 1017.59
1020.39 1020.63 1020.69 1020.47 1019.90 1018.96 1017.71 1016.24 1014.71 1013.29 1012.14 1011.39 1011.10 1011.26 1011.79 1012.58 1013.47 1014.30 1014.96 1015.38 1015.54 1015.46 1015.22 1014.90 1014.58 1014.32 1014.15 1014.07 1014.06 1014.07 1014.08 1014.05 1014.00 1013.93 1013.88 1013.88 1013.96 1014.13 1014.40 1014.73 1015.10 1015.47 1015.81 1016.10 1016.33 1016.52 1016.69 1016.87 1017.08
1020.66 1020.90 1020.95 1020.71 1020.14 1019.20 1017.95 1016.50 1014.97 1013.56 1012.42 1011.66 1011.35 1011.49 1012.00 1012.78 1013.66 1014.51 1015.20 1015.65 1015.83 1015.78 1015.55 1015.22 1014.87 1014.55 1014.31 1014.14 1014.04 1013.97 1013.90 1013.81 1013.70 1013.58 1013.48 1013.44 1013.48 1013.61 1013.83 1014.14 1014.48 1014.84 1015.18 1015.47 1015.72 1015.93 1016.12 1016.31 1016.52
1020.80 1020.99 1021.00 1020.74 1020.15 1019.24 1018.03 1016.63 1015.17 1013.83 1012.73 1012.01 1011.71 1011.84 1012.34 1013.08 1013.94 1014.76 1015.44 1015.90 1016.10 1016.07 1015.85 1015.51 1015.13 1014.76 1014.46 1014.21 1014.03 1013.88 1013.73 1013.58 1013.42 1013.26 1013.13 1013.05 1013.05 1013.15 1013.34 1013.61 1013.93 1014.28 1014.61 1014.90 1015.16 1015.38 1015.57 1015.75 1015.95
1020.75 1020.86 1020.79 1020.49 1019.91 1019.03 1017.90 1016.61 1015.28 1014.07 1013.09 1012.45 1012.20 1012.35 1012.82 1013.53 1014.34 1015.12 1015.77 1016.20 1016.40 1016.36 1016.13 1015.78 1015.37 1014.96 1014.59 1014.28 1014.02 1013.79 1013.58 1013.36 1013.16 1012.96 1012.80 1012.70 1012.67 1012.74 1012.91 1013.16 1013.46 1013.78 1014.11 1014.40 1014.66 1014.87 1015.05 1015.22 1015.39
Thickness
5692 5696 5699 5692 5678 5675 5686 5710 5726 5730 5737 5747 5751 5750 5746 5741 5736 5727 5744 5758 5760 5758 5756 5752 5750 5749 5748 5748 5747 5746 5745 5744 5743 5742 5741 5740 5740 5739 5738 5738 5737 5736 5735 5735 5734 5733 5731 5731 5730
5685 5689 5685 5676 5665 5667 5686 5710 5716 5725 5735 5742 5744 5743 5740 5736 5742 5740 5744 5752 5754 5753 5751 5748 5746 5745 5744 5743 5743 5742 5741 5740 5739 5738 5737 5736 5736 5735 5735 5734 5733 5732 5732 5731 5730 5729 5728 5726 5726
5677 5679 5669 5665 5664 5672 5690 5710 5715 5724 5732 5732 5730 5734 5731 5729 5736 5737 5741 5747 5748 5747 5746 5743 5741 5740 5740 5739 5738 5737 5737 5736 5735 5734 5733 5732 5731 5731 5730 5729 5729 5728 5727 5726 5726 5725 5724 5723 5722
5667 5663 5659 5655 5663 5683 5696 5705 5711 5714 5720 5725 5722 5718 5723 5731 5734 5735 5738 5741 5741 5740 5740 5737 5736 5735 5734 5734 5733 5732 5732 5731 5730 5729 5728 5728 5726 5726 5725 5725 5724 5724 5723 5722 5721 5721 5720 5718 5718
5655 5649 5644 5648 5662 5681 5693 5701 5704 5702 5706 5712 5712 5707 5708 5722 5729 5729 5731 5733 5733 5733 5733 5731 5729 5729 5728 5728 5727 5727 5726 5725 5724 5723 5723 5722 5721 5720 5720 5719 5719 5719 5718 5718 5717 5716 5715 5714 5713
5639 5639 5634 5642 5659 5675 5685 5691 5693 5693 5695 5700 5700 5697 5699 5713 5716 5719 5723 5724 5726 5726 5725 5723 5723 5722 5722 5721 5721 5721 5720 5719 5718 5717 5717 5716 5716 5714 5714 5714 5714 5713 5713 5713 5712 5711 5710 5709 5709
5628 5628 5631 5642 5650 5661 5673 5682 5681 5681 5682 5687 5691 5686 5691 5698 5703 5709 5713 5715 5717 5717 5717 5715 5714 5715 5715 5714 5714 5714 5714 5713 5712 5711 5710 5709 5709 5708 5708 5708 5708 5708 5707 5707 5706 5706 5705 5704 5704
5624 5621 5626 5635 5641 5650 5664 5669 5672 5672 5673 5682 5682 5674 5676 5685 5693 5698 5702 5704 5706 5707 5708 5707 5708 5708 5708 5707 5707 5707 5706 5706 5705 5703 5703 5702 5702 5701 5701 5701 5701 5701 5701 5701 5700 5700 5700 5699 5699
5616 5607 5613 5626 5633 5641 5651 5652 5658 5665 5665 5669 5672 5673 5675 5678 5682 5684 5687 5690 5693 5696 5697 5699 5700 5700 5700 5700 5700 5699 5699 5698 5697 5696 5695 5695 5694 5694 5694 5694 5694 5695 5695 5695 5694 5695 5694 5693 5693
5603 5598 5610 5622 5627 5628 5635 5639 5642 5646 5647 5652 5655 5660 5665 5667 5668 5670 5673 5676 5680 5683 5687 5689 5691 5693 5693 5693 5692 5692 5691 5691 5691 5689 5688 5688 5687 5687 5687 5687 5687 5688 5688 5688 5689 5689 5688 5688 5688
5595 5595 5604 5610 5615 5618 5621 5627 5632 5629 5631 5640 5641 5644 5649 5654 5656 5659 5662 5666 5670 5674 5677 5681 5682 5684 5685 5685 5685 5685 5684 5684 5684 5684 5682 5681 5681 5679 5679 5680 5680 5680 5681 5682 5682 5683 5683 5683 5683
5585 5590 5595 5598 5602 5604 5608 5614 5617 5620 5626 5634 5635 5637 5638 5641 5644 5647 5651 5655 5660 5663 5668 5672 5673 5674 5676 5677 5677 5677 5677 5677 5678 5677 5677 5676 5675 5673 5673 5673 5674 5674 5675 5676 5676 5677 5678 5678 5678
5575 5578 5584 5588 5591 5593 5596 5600 5604 5611 5620 5625 5627 5627 5628 5631 5635 5638 5642 5646 5650 5653 5656 5660 5663 5664 5666 5667 5668 5669 5669 5670 5670 5670 5670 5670 5669 5668 5668 5667 5668 5669 5670 5670 5670 5671 5672 5673 5673
5566 5567 5573 5577 5579 5581 5582 5588 5593 5602 5609 5613 5615 5617 5619 5622 5626 5628 5631 5635 5638 5642 5646 5649 5652 5654 5656 5658 5659 5661 5661 5662 5662 5662 5663 5663 5663 5663 5662 5662 5662 5663 5663 5664 5665 5665 5665 5666 5666
5559 5556 5561 5568 5570 5572 5572 5575 5584 5594 5598 5599 5603 5607 5610 5613 5616 5618 5622 5625 5629 5632 5636 5640 5643 5645 5646 5648 5650 5652 5653 5653 5653 5653 5654 5656 5656 5656 5656 5655 5655 5656 5657 5658 5659 5659 5659 5659 5659
5550 5546 5545 5560 5563 5564 5558 5559 5577 5585 5586 5587 5592 5596 5599 5602 5606 5610 5613 5616 5619 5622 5625 5630 5633 5635 5636 5638 5641 5642 5644 5644 5644 5645 5646 5648 5649 5649 5649 5649 5649 5649 5650 5651 5652 5652 5651 5651 5651
5537 5531 5536 5546 5554 5555 5550 5553 5568 5573 5575 5576 5580 5584 5588 5591 5596 5600 5603 5606 5609 5612 5614 5618 5622 5624 5626 5628 5632 5633 5635 5635 5635 5636 5637 5639 5640 5641 5641 5642 5642 5643 5643 5643 5644 5644 5644 5644 5643
5521 5524 5530 5533 5542 5544 5540 5545 5556 5561 5562 5564 5568 5572 5576 5580 5584 5589 5592 5595 5598 5601 5604 5607 5611 5613 5616 5619 5621 5623 5625 5626 5627 5628 5629 5630 5631 5633 5634 5635 5636 5635 5635 5635 5636 5636 5637 5637 5636
5521 5518 5517 5526 5534 5533 5533 5537 5545 5551 5552 5553 5556 5560 5565 5570 5575 5578 5581 5584 5587 5590 5593 5596 5600 5602 5605 5608 5609 5612 5614 5617 5618 5620 5621 5622 5623 5625 5627 5628 5629 5629 5628 5628 5628 5628 5628 5628 5629
5514 5511 5512 5520 5526 5525 5526 5531 5538 5543 5544 5546 5548 5551 5554 5559 5563 5567 5570 5573 5577 5580 5583 5586 5589 5592 5595 5598 5601 5603 5606 5608 5609 5611 5612 5613 5615 5617 5620 5621 5622 5622 5622 5621 5621 5621 5620 5620 5621
5510 5507 5506 5505 5512 5521 5520 5523 5531 5537 5539 5540 5542 5545 5547 5550 5553 5557 5560 5562 5565 5569 5573 5576 5579 5582 5585 5588 5592 5593 5595 5597 5598 5600 5603 5605 5608 5610 5612 5613 5615 5615 5615 5614 5614 5615 5614 5613 5614
5501 5508 5505 5502 5497 5500 5509 5503 5525 5530 5530 5532 5533 5536 5540 5544 5546 5548 5550 5552 5555 5559 5562 5566 5569 5573 5576 5578 5582 5584 5586 5588 5590 5592 5594 5597 5600 5602 5604 5606 5607 5608 5608 5608 5607 5607 5608 5607 5606
5498 5502 5501 5499 5495 5493 5503 5499 5515 5526 5523 5525 5527 5530 5534 5538 5539 5540 5542 5544 5546 5549 5552 5555 5558 5563 5566 5569 5572 5575 5577 5579 5581 5583 5585 5588 5591 5594 5597 5598 5599 5600 5601 5601 5601 5601 5600 5600 5600
5495 5496 5498 5498 5492 5485 5501 5499 5506 5514 5518 5521 5523 5527 5529 5531 5532 5533 5534 5535 5537 5539 5542 5546 5549 5553 5557 5560 5563 5566 5569 5571 5572 5574 5577 5579 5582 5585 5588 5589 5591 5592 5593 5594 5594 5594 5594 5593 5593
5487 5480 5477 5479 5480 5489 5510 5502 5503 5512 5514 5516 5517 5519 5522 5524 5524 5524 5526 5527 5528 5530 5533 5537 5541 5543 5547 5551 5554 5557 5560 5562 5564 5567 5569 5571 5573 5576 5579 5581 5582 5584 5585 5586 5587 5587 5586 5586 5585
5479 5476 5467 5466 5476 5490 5500 5496 5499 5509 5509 5510 5511 5514 5516 5517 5517 5518 5519 5519 5520 5522 5524 5527 5531 5534 5537 5541 5545 5549 5552 5554 5555 5558 5560 5563 5565 5568 5570 5572 5573 5575 5576 5577 5579 5579 5579 5578 5578
5472 5470 5471 5463 5469 5469 5486 5500 5503 5503 5501 5501 5501 5503 5505 5507 5508 5509 5511 5511 5512 5513 5515 5518 5522 5525 5528 5531 5535 5539 5542 5544 5546 5548 5551 5554 5556 5559 5561 5562 5564 5566 5567 5569 5570 5570 5570 5570 5570
5468 5467 5459 5456 5458 5468 5487 5491 5486 5483 5486 5488 5489 5488 5492 5495 5498 5500 5501 5502 5502 5503 5505 5508 5511 5514 5517 5520 5523 5528 5531 5535 5538 5540 5542 5545 5548 5550 5552 5553 5555 5557 5558 5559 5561 5561 5561 5561 5561
5459 5456 5453 5454 5456 5456 5465 5473 5481 5478 5478 5476 5476 5479 5483 5485 5488 5489 5491 5493 5493 5493 5494 5497 5500 5503 5506 5510 5514 5518 5521 5524 5528 5530 5533 5536 5538 5540 5542 5545 5546 5548 5549 5551 5552 5552 5553 5553 5552
5456 5455 5449 5443 5444 5451 5452 5459 5474 5472 5471 5469 5469 5471 5475 5477 5479 5479 5481 5482 5483 5484 5486 5488 5490 5493 5497 5500 5504 5507 5511 5514 5518 5520 5523 5527 5529 5531 5533 5535 5537 5539 5541 5542 5543 5543 5544 5544 5543